Snowfall_Accumulation
0.0 0.0 0.0 0.0 0.0 0.0 0.0 0.0 0.5 0.6 0.0 0.0 0.0 0.0 0.0 0.0 0.0 0.0 0.0 nan nan nan nan nan nan nan nan nan nan nan nan nan nan nan nan nan nan nan
0.0 0.0 0.0 0.0 0.0 0.0 0.0 0.0 0.0 0.0 0.1 0.0 0.0 0.0 0.0 0.0 0.0 0.0 0.0 nan nan nan nan nan nan nan nan nan nan nan nan nan nan nan nan nan nan nan
0.0 0.0 0.0 0.0 0.0 0.0 0.0 0.0 0.0 0.0 0.0 0.0 0.0 0.0 0.0 0.0 0.0 0.0 0.0 0.0 0.0 nan nan nan nan nan nan nan nan nan nan nan nan nan nan nan nan nan
0.0 0.0 0.0 0.0 0.0 0.0 0.0 0.0 0.0 0.0 0.0 0.0 0.0 0.0 0.0 0.0 0.0 0.0 0.0 0.0 0.0 nan nan nan nan nan nan nan nan nan nan nan nan nan nan nan nan nan
0.0 0.0 0.0 0.0 0.0 0.0 0.0 0.0 0.0 0.0 0.0 0.0 0.0 0.0 0.0 0.0 0.0 0.0 0.0 0.0 0.0 nan nan nan nan nan nan nan nan nan nan nan nan nan nan nan nan nan
0.0 0.0 0.0 0.0 0.0 0.0 0.0 0.0 0.0 0.0 0.0 0.0 0.0 0.0 0.0 0.0 0.0 0.0 0.0 0.0 0.0 0.0 nan nan nan nan nan nan nan nan nan nan nan nan nan nan nan nan
0.0 0.0 0.0 nan nan nan 0.0 0.0 0.0 0.0 0.0 0.0 0.0 0.0 0.0 0.0 0.0 0.0 0.0 0.0 0.0 0.0 0.0 0.0 0.0 0.0 0.0 nan nan nan nan nan nan nan nan nan nan nan
0.0 0.0 0.0 0.0 0.0 nan nan nan nan 0.0 0.1 0.1 0.0 0.0 0.0 0.0 0.0 0.0 0.0 0.3 0.8 0.2 0.2 0.4 0.0 0.0 0.0 0.0 nan nan nan nan nan nan nan nan nan nan
0.0 0.0 0.0 0.0 nan 0.0 nan nan nan nan 0.0 0.0 0.2 0.0 0.0 0.0 0.0 0.0 0.0 0.1 0.1 0.1 0.3 0.8 0.6 0.5 0.2 0.0 nan nan nan nan nan nan nan nan nan nan
0.0 0.0 0.0 0.0 0.0 0.0 0.0 0.1 0.0 0.0 0.0 0.0 0.2 0.1 0.0 0.0 0.0 0.0 0.2 0.6 0.5 0.2 0.1 2.4 0.9 1.1 0.7 0.3 nan nan nan nan nan nan nan nan nan nan
0.0 0.0 0.1 0.1 nan nan 0.4 0.8 0.2 0.0 nan nan nan nan nan nan nan 0.5 1.9 2.1 4.0 1.0 0.5 0.8 1.2 1.2 0.9 0.8 0.6 nan nan nan nan nan nan nan nan nan
0.2 0.1 nan 0.0 nan nan 1.4 1.3 1.6 0.2 0.1 0.1 0.0 0.0 nan nan nan 0.1 0.7 2.0 1.6 1.9 0.7 1.6 0.5 0.8 2.6 1.3 0.8 0.8 0.6 nan nan nan nan nan nan 0.3
1.1 0.9 0.6 nan nan nan nan 1.0 0.7 0.2 0.2 0.4 0.3 0.5 0.3 0.2 0.3 0.2 0.4 1.2 1.8 1.0 0.2 0.6 0.8 0.7 0.9 1.6 1.4 1.2 0.9 1.3 0.9 0.6 nan nan nan 0.3
1.5 1.1 1.4 nan nan nan 1.2 nan nan 0.6 3.6 3.1 2.4 1.5 1.4 1.1 0.4 0.3 0.1 0.2 0.3 0.3 0.0 0.4 2.7 0.8 1.3 2.0 1.8 1.5 1.6 1.8 1.5 2.3 2.1 nan nan nan
2.5 2.2 nan nan nan 1.2 nan nan 0.4 3.7 4.3 5.6 2.7 1.4 0.8 0.6 0.3 0.5 0.2 0.2 0.2 0.3 0.1 0.3 1.1 0.2 1.2 1.7 1.8 2.3 2.5 2.4 2.3 3.4 3.5 2.2 1.8 1.5
0.7 2.3 0.6 2.2 0.6 1.1 2.2 3.1 4.0 4.5 4.2 3.7 2.3 1.1 1.0 1.6 1.7 1.0 1.8 2.0 2.8 2.2 0.7 0.4 0.4 0.3 2.3 1.3 0.8 2.3 1.9 3.5 2.4 2.7 3.4 3.7 2.4 1.8
3.8 6.9 3.9 2.9 3.1 2.4 2.9 2.6 2.3 2.2 3.5 3.5 3.1 2.3 1.7 1.5 1.9 2.1 2.0 1.9 3.5 2.4 1.6 1.6 0.7 0.9 1.1 0.6 3.8 1.3 1.7 1.7 1.6 2.8 3.3 3.0 2.2 2.2
4.1 6.1 11.6 12.6 7.6 3.7 5.2 4.4 3.3 2.9 2.8 2.9 4.2 2.8 2.8 2.9 2.9 3.4 2.9 3.1 3.8 2.7 1.9 1.4 2.0 3.2 3.1 3.3 1.4 1.3 1.2 1.5 1.6 2.1 2.5 4.0 2.1 1.9
6.4 6.6 14.3 16.3 9.7 4.1 4.1 3.8 5.4 4.9 2.1 3.1 4.2 5.1 5.1 4.0 5.4 4.5 4.6 4.2 4.5 2.7 2.2 2.8 3.0 3.6 5.2 7.6 3.3 nan 2.7 1.9 4.4 5.2 3.3 3.7 3.2 2.4
3.5 6.3 9.4 10.4 5.6 3.0 3.3 4.0 4.4 6.6 7.0 5.1 7.4 9.8 11.4 8.3 6.9 4.6 4.3 6.5 4.5 2.7 1.8 1.5 2.1 2.7 3.8 7.7 12.8 10.6 nan 7.4 6.2 6.2 4.3 4.0 3.2 nan
3.7 3.5 6.5 5.3 5.2 3.9 12.0 12.7 16.1 15.0 14.8 18.2 10.8 10.4 20.7 5.9 7.0 5.3 5.8 4.5 3.8 2.3 2.7 2.7 2.6 0.4 2.5 6.4 23.1 12.5 11.5 nan 4.9 4.7 3.6 5.2 3.4 2.4
6.9 4.3 4.4 4.6 7.3 6.8 15.0 21.9 20.1 19.9 14.7 10.8 19.5 26.5 24.1 11.4 10.2 9.1 10.2 8.6 4.0 4.2 2.9 2.3 1.5 1.2 3.7 2.8 4.5 15.6 7.9 7.7 nan nan nan nan 5.6 5.5
13.2 5.3 7.7 9.3 8.3 10.2 5.5 12.4 5.4 25.5 11.0 11.0 10.7 11.2 41.7 14.7 8.4 8.1 8.5 6.0 4.2 4.4 3.3 3.4 2.0 1.5 2.2 2.1 3.6 6.2 5.8 9.8 5.5 3.9 9.3 nan nan nan
Water_Equivalent
0.00 0.00 0.00 0.00 0.00 0.00 0.00 0.00 0.08 0.09 0.00 0.00 0.00 0.00 0.00 0.00 0.00 0.00 0.00 nan nan nan nan nan nan nan nan nan nan nan nan nan nan nan nan nan nan nan
0.00 0.00 0.00 0.00 0.00 0.00 0.00 0.00 0.00 0.00 0.01 0.00 0.00 0.00 0.00 0.00 0.00 0.00 0.00 nan nan nan nan nan nan nan nan nan nan nan nan nan nan nan nan nan nan nan
0.00 0.00 0.00 0.00 0.00 0.00 0.00 0.00 0.00 0.00 0.00 0.00 0.00 0.00 0.00 0.00 0.00 0.00 0.00 0.00 0.00 nan nan nan nan nan nan nan nan nan nan nan nan nan nan nan nan nan
0.00 0.00 0.00 0.00 0.00 0.00 0.00 0.00 0.00 0.00 0.00 0.00 0.00 0.00 0.00 0.00 0.00 0.00 0.00 0.00 0.00 nan nan nan nan nan nan nan nan nan nan nan nan nan nan nan nan nan
0.00 0.00 0.00 0.00 0.00 0.00 0.00 0.00 0.00 0.00 0.00 0.00 0.00 0.00 0.00 0.00 0.00 0.00 0.00 0.00 0.00 nan nan nan nan nan nan nan nan nan nan nan nan nan nan nan nan nan
0.00 0.00 0.00 0.00 0.00 0.00 0.00 0.00 0.00 0.00 0.00 0.00 0.00 0.00 0.00 0.00 0.00 0.00 0.00 0.00 0.00 0.00 nan nan nan nan nan nan nan nan nan nan nan nan nan nan nan nan
0.00 0.00 0.00 nan nan nan 0.00 0.00 0.00 0.00 0.00 0.00 0.00 0.00 0.00 0.00 0.00 0.00 0.00 0.00 0.02 0.00 0.00 0.00 0.00 0.00 0.00 nan nan nan nan nan nan nan nan nan nan nan
0.00 0.00 0.00 0.00 0.00 nan nan nan nan 0.00 0.01 0.02 0.01 0.00 0.00 0.00 0.00 0.00 0.01 0.08 0.18 0.06 0.05 0.11 0.00 0.01 0.00 0.00 nan nan nan nan nan nan nan nan nan nan
0.00 0.00 0.00 0.00 nan 0.00 nan nan nan nan 0.00 0.00 0.03 0.01 0.00 0.00 0.00 0.00 0.01 0.02 0.02 0.03 0.08 0.19 0.15 0.13 0.05 0.00 nan nan nan nan nan nan nan nan nan nan
0.00 0.00 0.00 0.01 0.00 0.00 0.01 0.02 0.01 0.00 0.00 0.00 0.03 0.01 0.00 0.00 0.00 0.00 0.03 0.10 0.11 0.05 0.03 0.46 0.25 0.27 0.18 0.08 nan nan nan nan nan nan nan nan nan nan
0.00 0.01 0.01 0.02 nan nan 0.07 0.14 0.04 0.01 nan nan nan nan nan nan nan 0.12 0.40 0.40 0.73 0.24 0.15 0.19 0.29 0.30 0.24 0.28 0.23 nan nan nan nan nan nan nan nan nan
0.04 0.02 nan 0.01 nan nan 0.23 0.21 0.25 0.04 0.03 0.02 0.01 0.00 nan nan nan 0.02 0.13 0.37 0.31 0.31 0.16 0.29 0.10 0.16 0.45 0.30 0.21 0.27 0.23 nan nan nan nan nan nan 0.08
0.23 0.20 0.16 nan nan nan nan 0.17 0.12 0.03 0.03 0.09 0.07 0.12 0.07 0.04 0.09 0.07 0.07 0.24 0.34 0.19 0.04 0.10 0.14 0.13 0.16 0.26 0.30 0.28 0.22 0.38 0.31 0.24 nan nan nan 0.08
0.27 0.23 0.26 nan nan nan 0.29 nan nan 0.12 0.75 0.61 0.46 0.29 0.28 0.24 0.09 0.08 0.02 0.06 0.08 0.05 0.01 0.08 0.43 0.14 0.20 0.32 0.28 0.29 0.33 0.38 0.35 0.55 0.62 nan nan nan
0.48 0.42 nan nan nan 0.40 nan nan 0.13 0.68 0.78 0.96 0.50 0.27 0.17 0.14 0.05 0.11 0.05 0.04 0.05 0.07 0.02 0.07 0.23 0.05 0.22 0.26 0.28 0.37 0.40 0.45 0.46 0.65 0.68 0.48 0.41 0.39
0.19 0.42 0.21 0.46 0.21 0.26 0.46 0.60 0.75 0.82 0.75 0.65 0.40 0.20 0.20 0.31 0.33 0.20 0.34 0.35 0.47 0.36 0.17 0.10 0.09 0.07 0.39 0.21 0.13 0.34 0.31 0.55 0.44 0.51 0.63 0.69 0.48 0.38
0.67 1.07 0.61 0.45 0.46 0.40 0.50 0.45 0.42 0.42 0.61 0.62 0.56 0.42 0.33 0.27 0.35 0.42 0.38 0.32 0.54 0.38 0.26 0.30 0.15 0.19 0.22 0.10 0.58 0.21 0.27 0.28 0.28 0.47 0.59 0.52 0.43 0.44
0.57 0.79 1.43 1.58 0.95 0.51 0.73 0.65 0.54 0.50 0.46 0.51 0.76 0.50 0.50 0.54 0.51 0.59 0.50 0.50 0.56 0.41 0.31 0.23 0.35 0.55 0.54 0.56 0.26 0.21 0.21 0.25 0.27 0.35 0.46 0.64 0.33 0.36
0.83 0.81 1.55 1.82 1.17 0.51 0.53 0.51 0.70 0.72 0.31 0.52 0.69 0.82 0.82 0.65 0.89 0.74 0.77 0.69 0.69 0.41 0.35 0.49 0.51 0.60 0.70 0.94 0.49 nan 0.41 0.31 0.66 0.79 0.56 0.61 0.52 0.41
0.45 0.77 1.10 1.20 0.66 0.38 0.42 0.47 0.56 0.88 0.90 0.72 1.05 1.37 1.52 1.07 0.98 0.68 0.67 0.89 0.66 0.41 0.28 0.25 0.35 0.46 0.59 1.04 1.83 1.40 nan 1.09 0.91 0.90 0.64 0.64 0.53 nan
0.45 0.42 0.80 0.64 0.62 0.48 1.38 1.48 1.83 1.70 1.74 2.21 1.38 1.33 2.88 0.85 0.97 0.76 0.80 0.80 0.72 0.35 0.39 0.39 0.38 0.15 0.39 0.95 3.30 1.65 1.51 nan 0.78 0.72 0.56 0.77 0.48 0.34
0.84 0.52 0.55 0.60 0.87 0.77 1.66 2.54 2.31 2.31 1.66 1.24 2.26 3.33 3.11 1.42 1.16 1.01 1.26 1.09 0.56 0.60 0.39 0.33 0.23 0.19 0.57 0.40 0.59 2.09 0.99 1.02 nan nan nan nan 0.76 0.73
1.44 0.63 0.95 1.11 1.05 1.26 0.69 1.39 0.65 3.04 1.21 1.22 1.18 1.25 5.43 1.60 0.96 1.01 1.10 0.79 0.56 0.59 0.45 0.46 0.29 0.22 0.32 0.28 0.49 0.79 0.71 1.31 0.76 0.51 1.16 nan nan nan
SL_Ratio
nan nan nan nan nan nan nan nan 5.5 6.4 nan nan nan nan nan nan nan nan nan nan nan nan nan nan nan nan nan nan nan nan nan nan nan nan nan nan nan nan
nan nan nan nan nan nan nan nan nan nan 5.8 nan nan nan nan nan nan nan nan nan nan nan nan nan nan nan nan nan nan nan nan nan nan nan nan nan nan nan
nan nan nan nan nan nan nan nan nan nan 5.8 nan nan nan nan nan nan nan nan nan nan nan nan nan nan nan nan nan nan nan nan nan nan nan nan nan nan nan
nan nan nan nan nan nan nan nan nan nan nan nan nan nan nan nan nan nan nan nan nan nan nan nan nan nan nan nan nan nan nan nan nan nan nan nan nan nan
nan nan nan nan nan nan nan nan nan nan nan nan nan nan nan nan nan nan nan nan nan nan nan nan nan nan nan nan nan nan nan nan nan nan nan nan nan nan
nan nan nan nan nan nan nan nan nan nan nan nan nan nan nan nan nan nan nan nan nan nan nan nan nan nan nan nan nan nan nan nan nan nan nan nan nan nan
nan nan nan nan nan nan nan nan nan nan nan nan nan nan nan nan nan nan nan nan 3.1 nan nan nan nan nan nan nan nan nan nan nan nan nan nan nan nan nan
nan nan nan nan nan nan nan nan nan nan 5.8 5.9 5.8 5.4 nan nan nan nan 3.9 3.8 4.3 3.2 3.3 3.7 2.5 3.4 nan nan nan nan nan nan nan nan nan nan nan nan
nan nan nan nan nan nan nan nan nan nan 5.0 5.7 6.0 5.6 0.0 nan nan 5.0 4.0 5.0 4.8 3.4 3.4 4.1 3.8 3.6 3.7 nan nan nan nan nan nan nan nan nan nan nan
0.0 nan nan 3.5 4.0 3.6 4.2 4.5 4.6 7.5 6.7 10.0 5.8 6.6 5.7 nan nan 5.6 6.3 6.3 4.6 4.2 3.6 5.1 3.7 4.1 4.0 3.9 nan nan nan nan nan nan nan nan nan nan
3.8 3.4 4.7 4.6 nan nan 5.3 5.5 5.1 4.3 nan nan nan nan nan nan nan 4.3 4.8 5.2 5.5 4.0 3.8 4.4 4.2 4.1 3.6 3.1 2.5 nan nan nan nan nan nan nan nan nan
4.4 4.0 nan 4.0 nan nan 6.3 6.0 6.3 5.4 5.1 4.0 3.4 4.0 nan nan nan 4.6 5.0 5.6 5.2 6.2 4.4 5.6 5.0 5.4 5.7 4.4 3.6 3.0 2.7 nan nan nan nan nan nan 3.3
4.8 4.5 4.0 nan nan nan nan 5.8 5.9 5.7 5.8 5.1 4.7 4.3 3.9 3.9 3.4 3.2 5.4 5.1 5.5 5.6 3.9 5.4 5.5 5.4 5.8 6.1 4.5 4.3 4.0 3.5 2.9 2.6 nan nan nan 3.4
5.5 4.8 5.3 nan nan nan 4.3 nan nan 4.6 4.8 5.1 5.3 5.1 5.1 4.8 4.3 4.1 4.3 3.7 3.7 5.4 3.8 5.2 6.3 5.9 6.4 6.3 6.5 5.2 5.0 4.7 4.3 4.1 3.4 nan nan nan
5.2 5.2 nan nan nan 3.0 nan nan 3.0 5.5 5.5 5.8 5.4 5.3 5.0 4.7 4.8 5.0 4.9 4.5 4.4 4.3 3.7 4.4 4.7 5.2 5.3 6.4 6.6 6.3 6.2 5.3 5.0 5.2 5.1 4.5 4.4 3.7
3.9 5.4 3.0 4.8 3.0 4.2 4.8 5.2 5.3 5.5 5.6 5.7 5.6 5.3 5.2 5.1 5.2 4.7 5.4 5.6 5.9 6.0 4.3 4.1 4.7 5.0 5.8 5.9 6.0 6.6 6.0 6.5 5.5 5.2 5.4 5.3 5.1 4.8
5.6 6.4 6.3 6.6 6.8 6.2 5.9 5.7 5.5 5.4 5.7 5.6 5.6 5.5 5.3 5.4 5.3 4.9 5.2 5.9 6.4 6.4 6.0 5.2 4.7 4.7 5.0 5.9 6.5 6.0 6.2 6.2 5.8 6.0 5.6 5.7 5.2 5.1
7.2 7.7 8.1 8.0 8.0 7.3 7.1 6.7 6.2 5.8 6.0 5.7 5.6 5.5 5.5 5.3 5.7 5.8 5.7 6.2 6.7 6.5 6.3 6.0 5.7 5.9 5.8 6.0 5.4 6.2 6.0 6.0 6.0 6.1 5.6 6.3 6.3 5.3
7.7 8.1 9.2 8.9 8.3 7.9 7.8 7.4 7.7 6.8 6.8 5.9 6.0 6.2 6.3 6.2 6.1 6.1 6.0 6.1 6.5 6.5 6.2 5.7 5.8 6.0 7.4 8.0 6.7 nan 6.4 6.1 6.6 6.6 5.8 6.0 6.3 5.9
7.7 8.2 8.6 8.7 8.4 7.9 8.0 8.5 7.9 7.5 7.7 7.1 7.0 7.2 7.5 7.7 7.0 6.8 6.5 7.3 6.8 6.6 6.5 6.0 5.9 5.9 6.5 7.4 7.0 7.6 nan 6.8 6.9 6.9 6.8 6.3 6.1 nan
8.2 8.2 8.1 8.3 8.4 8.1 8.7 8.6 8.8 8.8 8.5 8.2 7.9 7.8 7.2 7.0 7.2 7.0 7.3 5.6 5.2 6.7 7.0 6.8 6.7 3.0 6.6 6.8 7.0 7.6 7.6 nan 6.3 6.5 6.5 6.7 7.1 6.9
8.2 8.4 8.0 7.8 8.4 8.8 9.0 8.6 8.7 8.6 8.9 8.7 8.6 8.0 7.7 8.0 8.8 9.0 8.1 7.8 7.2 7.1 7.4 7.0 6.6 6.3 6.4 7.0 7.7 7.5 8.0 7.6 nan nan nan nan 7.4 7.5
9.2 8.4 8.1 8.4 7.9 8.1 7.9 8.9 8.4 8.4 9.1 9.0 9.1 8.9 7.7 9.1 8.7 8.0 7.7 7.6 7.4 7.4 7.2 7.4 7.0 6.8 7.0 7.5 7.4 7.8 8.2 7.5 7.3 7.6 8.0 nan nan nan